Regional Weather Roundup
Issued by NWS

Home | Current Version | Previous Version | Text Only | Print | Product List | Glossary Off
Versions: 1 2 3 4 5 6 7 8 9 10 11 12 13 14 15 16 17 18 19 20 21 22 23 24 25 26 27 28 29 30 31 32 33 34 35 36 37 38 39 40 41 42 43 44 45 46 47 48 49 50

000
ASUS43 KMKX 271121
RWRWI

WISCONSIN REGIONAL WEATHER ROUNDUP
NATIONAL WEATHER SERVICE MILWAUKEE/SULLIVAN WI
600 AM CDT SAT AUG 27 2016

NOTE: "FAIR" INDICATES FEW OR NO CLOUDS BELOW 12,000 FEET WITH NO
SIGNIFICANT WEATHER AND/OR OBSTRUCTIONS TO VISIBILITY.

WIZ001-002-006>008-014>016-023>028-271200-
NORTHWEST WISCONSIN

CITY           SKY/WX    TMP DP  RH WIND       PRES   REMARKS
SUPERIOR ARPT  CLOUDY    54  53  99 CALM      30.09F
ASHLAND        CLOUDY    52  50  93 CALM      30.12S
HAYWARD        CLOUDY    55  53  93 N3        30.12R
SIREN          CLOUDY    56  55  94 CALM      30.09S
CUMBERLAND     CLOUDY    57  54  88 CALM      30.11R
RICE LAKE      DRIZZLE   58  55  89 E3        30.12R
CHETEK         NOT AVBL
LADYSMITH      CLOUDY    57  54  88 E5        30.13S
EAU CLAIRE     CLOUDY    60  58  92 SE5       30.09R
MENOMONIE      MOCLDY    60  59  94 CALM      30.09R
NEW RICHMOND   LGT RAIN  59  58  96 E6        30.08R
OSCEOLA        CLOUDY    60  60 100 E3        30.10S
$$

WIZ003>005-009-010-017-018-271200-
NORTH CENTRAL WISCONSIN

CITY           SKY/WX    TMP DP  RH WIND       PRES   REMARKS
MANITOWISH WTR NOT AVBL
ARBOR VITAE    CLOUDY    57  53  86 SE5       30.14F
WOODRUFF       CLOUDY    57  53  86 SE5       30.14F
RHINELANDER    CLOUDY    57  55  93 SE5       30.16S
EAGLE RIVER    CLOUDY    53  53 100 CALM      30.15R
LAND O LAKES   CLOUDY    51  51 100 CALM      30.17R
PHILLIPS       CLOUDY    55  53  92 CALM      30.13R
TOMAHAWK       CLOUDY    55  53  92 CALM      30.15S
MEDFORD        CLOUDY    57  57 100 SE3       30.12S
MERRILL        CLOUDY    57  57 100 E5        30.14F
$$

WIZ029-030-035-036-043>047-271200-
CENTRAL WISCONSIN

CITY           SKY/WX    TMP DP  RH WIND       PRES   REMARKS
WAUSAU         CLOUDY    59  57  93 E5        30.12F
MOSINEE        CLOUDY    57  57 100 E6        30.14S
MARSHFIELD     CLOUDY    59  56  89 E5        30.11F
STEVENS POINT  CLOUDY    58  57  99 NE3       30.13F
WAUPACA        CLOUDY    62  62  99 CALM      30.13S
WAUTOMA        LGT RAIN  60  59  96 N5        30.12S
WISC RAPIDS    CLOUDY    59  58  96 E7        30.13S
CAMP DOUGLAS   LGT RAIN  61  59  94 E7        30.10S
$$

WIZ011>013-019>022-031-037>040-048>050-271200-
NORTHEAST WISCONSIN

CITY           SKY/WX    TMP DP  RH WIND       PRES   REMARKS
ANTIGO         CLOUDY    57  56  99 CALM      30.15S
SHAWANO        CLOUDY    63  60  88 E3        30.14S
OCONTO         NOT AVBL
STURGEON BAY   LGT RAIN  64  62  93 CALM      30.16F
GREEN BAY      LGT RAIN  62  62 100 NE6       30.13S
MANITOWOC      LGT RAIN  62  59  90 NE3       30.14F
APPLETON       CLOUDY    63  57  82 E7        30.11F
CLINTONVILLE   CLOUDY    61  59  94 CALM      30.13R
OSHKOSH        CLOUDY    63  60  90 NE6       30.11S
$$

WIZ032>034-041-042-053>061-271200-
SOUTHWEST WISCONSIN

CITY           SKY/WX    TMP DP  RH WIND       PRES   REMARKS
LA CROSSE      CLOUDY    64  60  87 CALM      30.07R
SPARTA         DRIZZLE   60  59  97 E5        30.09S
VIROQUA        CLOUDY    60  60 100 E10       30.07F
BOSCOBEL       LGT RAIN  64  62  93 NE3       30.06F
PRAIRIE DU CHI LGT RAIN  62  61  96 CALM      30.04S
PLATTEVILLE    CLOUDY    63  63 100 E14       30.05F
$$

WIZ056-057-062-063-064-067-068-271200-
SOUTH CENTRAL WISCONSIN

CITY           SKY/WX    TMP DP  RH WIND       PRES   REMARKS
REEDSBURG      NOT AVBL
BARABOO/DELLS  HVY RAIN  61  59  94 NE5       30.10R
LONE ROCK      LGT RAIN  63  61  93 E9        30.08F
MINERAL POINT  RAIN      63  63 100 E9        30.07F
MADISON        RAIN      62  60  93 NE10      30.08F FOG
MIDDLETON      CLOUDY    63  63 100 E8        30.09F
WATERTOWN      LGT RAIN  61  61 100 N9        30.10R
MONROE         CLOUDY    61  61 100 NE12      30.06S
JANESVILLE     CLOUDY    64  63  94 NE9       30.06S
$$

WIZ051-052-058>065-066-070>072-271200-
SOUTHEAST WISCONSIN

CITY           SKY/WX    TMP DP  RH WIND       PRES   REMARKS
MILWAUKEE      CLOUDY    65  62  90 NE9       30.08F
WAUKESHA       CLOUDY    61  61 100 NE9       30.11R
MILWAUKEE/TIMM CLOUDY    61  59  94 NE7       30.11R
RACINE         CLOUDY    68  62  81 E7        30.10S
BURLINGTON     CLOUDY    64  62  94 E5        30.09R
KENOSHA        HVY RAIN  67  64  90 E7        30.09S FOG
FOND DU LAC    LGT RAIN  62  60  93 E6        30.11F
SHEBOYGAN      LGT RAIN  61  59  93 NE7       30.12F
WEST BEND      RAIN      61  59  94 NE8       30.11F
JUNEAU         RAIN      60  59  97 E8        30.12R
$$

LSZ147-162-271200-
LAKE SUPERIOR

STATION/POSITION TIME  TEMP    WIND        PRES    WAVE
                       AIR SEA DIR/SP/G            HT/PER
                 (UTC) (F)     (DEG/KT/KT) (MB)    (FT/S)
W MID LAKE BUOY  1050   67 67  180/  8/ 10 1019.5S   1
DEVILS ISLAND    1100   63     190/  4/  5 1019.8R
PORT WING        1000   59      CALM  /  3 1019.6S
SAXON HARBOR     1000   58     190/  5/  7 1019.3F
$$

LMZ867-665-643>646-271200-
LAKE MICHIGAN

STATION/POSITION TIME  TEMP    WIND        PRES    WAVE
                       AIR SEA DIR/SP/G            HT/PER
                 (UTC) (F)     (DEG/KT/KT) (MB)    (FT/S)
CHAMBERS ISLAND  1000   63     170/  2/  3 1021.0R
S GREEN BAY BUOY 1030   67 72   30/ 10/ 12 1019.9
N MID LAKE BUOY  1050   69 70  230/  4/  4 1020.9R   1
NORTHPORT PIER   1000   64     260/  4/ 16 1021.0R
SISTER BAY       1037   63        CALM       N/A
KEWAUNEE LAKESHO 1000   63     280/  3/  4 1020.2R
SHEBOYGAN LAKESH 1100   60      30/  5/  5 1019.9F
PORT WASHINGTON  1040   62      30/  9/ 12 1020.3F
ATWATER BUOY     1100   62      50/ 12/ 14   N/A
MILWAUKEE LAKESH 1010   61      30/ 14/ 15   N/A
S MID LAKE BUOY  1050   71 74  100/ 16/ 17 1017.9R   2/ 4
KENOSHA   LAKESH 1100   70      90/  9/ 10 1018.6R
$$

TC  - TEMPERATURE IN CELSIUS
VSB - VISIBILITY IN STATUTE MILES
WCI - WIND CHILL INDEX
HX  - HEAT INDEX




USA.gov is the U.S. government's official web portal to all federal, state and local government web resources and services.